This is the latest recevied weather packets stored in our database for station/object OM2WX-6. If no packets are shown the sender has not sent any weather packets the latest 10 day(s).
| Time | Temp. | Humidity | Pressure | Rain* | Wind** | Luminosity | Snow |
|---|---|---|---|---|---|---|---|
| 1777625993 | 15.56° C | 46% | 1024.8 hPa | 0 mm | - | - | - |
| 1777625694 | 15° C | 46% | 1024.7 hPa | 0 mm | - | - | - |
| 1777625394 | 15° C | 46% | 1024.7 hPa | 0 mm | - | - | - |
| 1777625094 | 15° C | 46% | 1024.7 hPa | 0 mm | - | - | - |
| 1777624794 | 14.44° C | 46% | 1024.8 hPa | 0 mm | - | - | - |
| 1777624494 | 14.44° C | 47% | 1024.9 hPa | 0 mm | - | - | - |
| 1777624194 | 14.44° C | 46% | 1024.9 hPa | 0 mm | - | - | - |
| 1777623894 | 14.44° C | 47% | 1024.9 hPa | 0 mm | - | - | - |
| 1777623594 | 14.44° C | 47% | 1024.9 hPa | 0 mm | - | - | - |
| 1777623294 | 13.89° C | 47% | 1024.9 hPa | 0 mm | - | - | - |
| 1777622994 | 13.89° C | 47% | 1025 hPa | 0 mm | - | - | - |
| 1777622694 | 14.44° C | 48% | 1024.9 hPa | 0 mm | - | - | - |
| 1777622394 | 14.44° C | 48% | 1024.9 hPa | 0 mm | - | - | - |
| 1777622094 | 14.44° C | 48% | 1024.9 hPa | 0 mm | - | - | - |
| 1777621794 | 13.89° C | 49% | 1025 hPa | 0 mm | - | - | - |
| 1777621494 | 13.89° C | 49% | 1025 hPa | 0 mm | - | - | - |
| 1777621194 | 13.89° C | 49% | 1025 hPa | 0 mm | - | - | - |
| 1777620894 | 13.89° C | 50% | 1024.9 hPa | 0 mm | - | - | - |
| 1777620594 | 13.33° C | 50% | 1025.1 hPa | 0 mm | - | - | - |
| 1777620294 | 13.33° C | 51% | 1024.9 hPa | 0 mm | - | - | - |
| 1777619994 | 12.78° C | 51% | 1025 hPa | 0 mm | - | - | - |
| 1777619694 | 12.78° C | 51% | 1024.9 hPa | 0 mm | - | - | - |
| 1777619394 | 12.22° C | 51% | 1024.9 hPa | 0 mm | - | - | - |
| 1777619094 | 11.67° C | 52% | 1025 hPa | 0 mm | - | - | - |
| 1777618794 | 11.67° C | 53% | 1025 hPa | 0 mm | - | - | - |
* Rain latest hour (hover to see other rain measurements)
** Current wind speed in m/s (hover to see current wind gust speed)